Flag for Romania Weather past 2 weeks in Timișoara, Romania

52 °F


Feels Like: 51 °F
Forecast: 50 / 68 °F
Wind: 3 mph from Northeast

Location: Timisoara Airport

Current Time: Oct 7, 2015 at 12:18:41 AM

Latest Report: Oct 7, 2015 at 12:00 AM

Visibility: 2 mi

Pressure: 29.86 "Hg

Humidity: 100%

Dew point: 52 °F

Location of TimișoaraLocation

Historic Weather in Timișoara — Graph


Timișoara temperature yesterday

Maximum temperature yesterday: 63 °F (at 5:30 PM)
Minimum temperature yesterday: 50 °F (at 3:00 AM)
Average temperature yesterday: 56 °F

Past Weeks' High & Low Weather Summary

High84 °F (Sep 23, 4:00 PM)100% (Sep 25, 5:00 AM)30.42 "Hg (Sep 25, 5:00 AM)
Low41 °F (Oct 2, 4:30 AM)31% (Sep 23, 5:00 PM)29.77 "Hg (Sep 23, 4:30 AM)
Average59 °F83%30.10 "Hg
* Reported Sep 21 11:00 PM — Oct 6 11:00 PM, Timișoara, Weather by CustomWeather, © 2015

Note: Actual official high and low records may vary slightly from our data, if they occured in-between our weather recording intervals... More about our weather records


Timișoara weather history for previous 24 hours

Time TempWeatherWind HumidityBarometerVisibility
11:00 PM
Tue, Oct 6
54 °FFog.2 mph100%29.89 "Hg3 mi
10:30 PM54 °FFog.2 mph100%29.89 "Hg3 mi
10:00 PM54 °FFog.2 mph100%29.89 "Hg3 mi
9:30 PM54 °FFog.3 mph100%29.89 "Hg3 mi
9:00 PM54 °FCool.5 mph100%29.89 "Hg4 mi
8:30 PM55 °FFog.3 mph100%29.89 "Hg5 mi
8:00 PM55 °FFog.2 mph100%29.89 "HgN/A
7:30 PM57 °FSunny.3 mph94%29.89 "Hg10 mi
7:00 PM59 °FSunny.5 mph94%29.86 "Hg10 mi
6:30 PM63 °FSunny.2 mph77%29.86 "Hg10 mi
6:00 PM63 °FPassing clouds.2 mph77%29.86 "HgN/A
5:30 PM63 °FPassing clouds.3 mph83%29.89 "HgN/A
5:00 PM61 °FScattered clouds.1 mph83%29.89 "HgN/A
4:30 PM61 °FPartly sunny.1 mph83%29.89 "HgN/A
4:00 PM61 °FPartly sunny.1 mph94%29.89 "HgN/A
3:30 PM61 °FPartly sunny.No wind94%29.92 "HgN/A
3:00 PM61 °FPartly sunny.1 mph94%29.92 "HgN/A
2:30 PM59 °FMore clouds than sun.No wind100%29.92 "HgN/A
2:00 PM59 °FLow clouds.1 mph100%29.92 "HgN/A
1:30 PM59 °FLow clouds.1 mph100%29.95 "HgN/A
1:00 PM57 °FLow clouds.1 mph100%29.95 "HgN/A
12:30 PM57 °FFog.2 mph100%29.95 "Hg3 mi
12:00 PM57 °FFog.5 mph94%29.95 "Hg2 mi
11:30 AM57 °FFog.3 mph94%29.95 "Hg1 mi
11:00 AM57 °FFog.5 mph94%29.95 "Hg1 mi
10:30 AM55 °FFog.3 mph100%29.95 "Hg1 mi
10:00 AM55 °FFog.2 mph100%29.95 "Hg0 mi
9:30 AM55 °FFog.2 mph94%29.95 "Hg0 mi
9:00 AM54 °FFog.No wind94%29.95 "Hg0 mi
8:30 AM54 °FFog.No wind94%29.95 "Hg0 mi
8:00 AM54 °FFog.1 mph94%29.95 "Hg0 mi
7:30 AM54 °FFog.1 mph94%29.92 "Hg0 mi
7:00 AM54 °FFog.2 mph94%29.92 "Hg0 mi
6:30 AM54 °FFog.2 mph94%29.92 "Hg0 mi
6:00 AM54 °FFog.2 mph94%29.92 "Hg0 mi
5:30 AM54 °FFog.5 mph94%29.92 "Hg0 mi
5:00 AM52 °FFog.3 mph100%29.92 "Hg0 mi
4:30 AM50 °FFog.No wind100%29.92 "Hg0 mi
4:00 AM50 °FFog.2 mph100%29.92 "Hg0 mi
3:30 AM50 °FFog.1 mph100%29.95 "Hg0 mi
3:00 AM50 °FFog.2 mph100%29.95 "Hg0 mi
2:30 AM52 °FFog.No wind100%29.95 "Hg1 mi
2:00 AM54 °FFog.1 mph94%29.95 "Hg1 mi
1:30 AM54 °FFog.No wind100%29.95 "Hg1 mi
1:00 AM54 °FFog.6 mph100%29.95 "Hg1 mi
12:00 AM55 °FPassing clouds.3 mph100%29.95 "Hg4 mi
Weather by CustomWeather, © 2015

See weather overviewHow to use our weather pages